Location: 3 Angels Observatory
(30.5437°N, 88.5068°W)
Time: 13:10:25
(UTC-05:00)

Daily predictions for brighter satellites

Satellite Brightness Start Highest point End
(mag) Time Altitude Azimuth Time Altitude Azimuth Time Altitude Azimuth
Cosmos 1844 4.0 20:07:36 10° NNW 20:13:23 75° WSW 20:19:09 10° SSE
H-2A R/B 3.7 20:13:05 10° SE 20:16:35 32° ENE 20:20:08 10° N
Okean 2 4.3 20:13:43 10° SSE 20:17:22 30° E 20:21:03 10° NNE
Cosmos 1892 Rocket 3.8 20:13:55 10° SSE 20:18:10 49° E 20:22:29 10° NNE
Resurs 1-3 4.4 20:16:42 10° S 20:20:59 55° W 20:25:18 10° NNW
Aureole 2 Rocket 3.1 20:18:48 10° S 20:22:39 41° ESE 20:26:12 10° NNE
Hubble Space Telescope 3.2 20:32:55 10° SW 20:34:30 12° SSW 20:36:04 10° S
USA 186 1.5 20:32:21 10° SSE 20:35:16 60° ENE 20:37:59 10° N
CZ-2C R/B 2.0 20:36:18 16° ESE 20:37:15 20° ENE 20:39:05 10° NNE
ATLAS 5 CENTAUR R/B 2.4 20:38:10 10° SSW 20:40:08 16° SSE 20:41:36 14° SE
ATLAS 3B R/B 3.8 20:40:30 10° SSE 20:46:26 25° ESE 20:52:20 10° ENE
Cosmos 1726 Rocket 3.5 20:42:11 10° N 20:46:37 75° E 20:50:59 10° S
Cosmos 2278 Rocket 2.9 20:41:31 10° NNW 20:47:03 55° WSW 20:52:33 10° S
BREEZE-M DEB (TANK) 4.2 20:46:45 10° NW 20:51:20 85° SW 21:06:15 16° SE
Fermi 4.3 20:48:17 10° WSW 20:52:08 40° S 20:54:24 21° ESE
deb Centaur AC-2 4.4 20:50:05 10° WSW 20:54:57 76° S 21:00:38 11° E
OTV 4 2.9 20:54:32 10° WSW 20:56:08 14° SW 20:57:33 11° S
CZ-2D R/B 4.3 20:55:03 10° S 20:58:45 44° W 21:02:30 10° NNW
Cosmos 1602 Rocket 3.8 20:56:45 11° SSE 21:00:52 52° E 21:05:13 10° NNE
ERS-1 Rocket 3.0 20:57:02 15° SSE 21:01:09 66° ENE 21:06:08 10° N
SL-16 R/B 3.8 20:56:28 10° SW 21:01:41 38° WNW 21:06:55 10° N
Cosmos 2058 Rocket 3.0 20:58:39 10° N 21:03:02 88° E 21:06:45 14° S
Atlas Centaur 2 2.9 20:56:28 10° WSW 21:03:38 76° SSE 21:12:04 10° E
APEX 4.2 20:59:41 10° N 21:04:02 49° ENE 21:07:16 23° SE
Cosmos 1666 2.9 21:00:16 10° N 21:04:04 50° E 21:05:58 26° SE
Abrixas rocket 3.7 21:01:44 10° NNW 21:04:45 29° NE 21:06:15 20° ENE
Cosmos 2285 Rocket 4.0 20:58:56 10° NNW 21:05:16 77° ENE 21:10:15 17° SSE
YAOGAN 11 4.3 21:01:58 11° S 21:06:12 70° WSW 21:10:31 10° NNW
Envisat 3.7 21:05:31 23° SE 21:08:04 38° ENE 21:12:43 10° N
Meteor 1-15 Rocket 4.2 21:03:30 10° N 21:09:04 68° E 21:13:12 19° SSE
ISS -2.4 21:09:41 10° WSW 21:12:51 50° NW 21:16:03 10° NNE
Cosmos 1464 Rocket 3.9 21:07:44 10° N 21:13:54 87° E 21:19:22 14° S
CZ-3C R/B 3.2 21:06:34 10° WSW 21:15:18 24° SSW 21:16:41 21° S
Cosmos 1812 Rocket 4.4 21:13:23 10° NNE 21:17:20 32° E 21:18:12 30° ESE
Cosmos 1939 Rocket 3.0 21:16:38 32° SE 21:18:22 60° ENE 21:22:28 10° N
deb Chang Zheng 4 4.3 21:14:22 10° N 21:18:39 55° WNW 21:22:54 10° SSW
H-2A R/B 2.0 21:22:24 26° S 21:24:43 78° WSW 21:29:03 10° NNW
GRACE-1 4.3 21:22:07 10° N 21:24:31 49° NE 21:24:31 49° NE
GRACE-2 4.4 21:22:33 10° N 21:24:56 48° NE 21:24:56 48° NE
SPOT 5 3.0 21:24:59 37° ESE 21:26:11 46° ENE 21:30:21 10° N
COSMOS 2455 2.8 21:21:25 10° SSW 21:27:24 89° WNW 21:33:27 10° NNE
ALOS 4.0 21:23:42 10° SSW 21:27:44 29° W 21:31:47 10° NW
Cosmos 1515 4.1 21:28:51 42° E 21:28:51 42° E 21:32:26 10° NNE
Cosmos 1603 4.2 21:25:09 10° SSW 21:30:41 59° WNW 21:36:13 10° NNE
CZ-4 SHROUD 3.4 21:31:44 55° NE 21:31:44 55° NE 21:34:38 10° N
Cosmos 2034 Rocket 4.0 21:26:50 10° N 21:33:14 88° W 21:37:26 23° S
Cosmos 1626 Rocket 4.0 21:29:19 11° SSW 21:33:29 61° W 21:37:51 10° N
BREEZE-M DEB (TANK) 3.1 21:33:57 10° NNW 21:35:27 33° N 21:35:27 33° N
YAOGAN 6 3.9 21:39:45 28° NE 21:39:45 28° NE 21:42:26 10° NNE
Terra 4.1 21:43:54 11° ENE 21:43:54 11° ENE 21:44:47 10° NE
Cosmos 2228 4.2 21:42:10 10° NNW 21:46:19 41° W 21:48:45 22° SSW
Cosmos 1346 Rocket 4.3 21:48:51 23° NE 21:48:51 23° NE 21:50:46 10° NNE
Meteor 2-12 Rocket 4.4 21:41:44 10° N 21:47:45 63° E 21:49:33 44° SE
Cosmos 1953 Rocket 4.4 21:52:37 36° ENE 21:52:37 36° ENE 21:55:51 10° NNE
Delta 168 3.9 21:50:31 10° WSW 21:52:53 33° SW 21:52:53 33° SW
Cosmos 1943 3.1 21:50:37 24° SSW 21:54:07 84° ESE 21:59:49 10° NNE
PSLV R/B 4.3 21:55:18 44° NW 21:55:18 44° NW 21:57:41 10° NNW
MetOp-A 4.0 21:55:39 54° SSE 21:56:55 80° ENE 22:02:17 10° N
H-2A R/B 3.7 21:57:40 18° ENE 21:57:40 18° ENE 22:00:34 10° NNE
Cosmos 2346 Rocket 4.4 21:56:16 44° SSE 21:58:17 71° E 22:04:25 10° N
Lacrosse 4 Rocket 2.5 22:03:03 33° NE 22:03:03 33° NE 22:05:24 10° NNE
Cosmos 1190 Rocket 3.9 22:03:10 55° S 22:04:22 84° ESE 22:09:42 10° NNE
Cosmos 1943 Rocket 4.2 22:01:59 10° NNE 22:04:27 13° ENE 22:04:49 13° ENE
SeaSat 1 2.3 22:04:20 70° SSE 22:04:54 89° ENE 22:09:52 10° NNW
SPOT 1/Viking Rocket 3.4 22:05:20 64° ESE 22:05:43 66° ENE 22:10:50 10° N
Cosmos 1900 4.3 22:07:02 69° E 22:07:02 69° E 22:11:54 10° NNE
Geosat 4.0 22:02:00 10° NNE 22:06:36 62° E 22:06:36 62° E
OAO 3 Copernicus 4.3 22:07:29 10° WNW 22:12:16 71° SW 22:12:16 71° SW
Milstar 3 Cent rocket 3.5 22:11:45 10° W 22:16:23 25° SW 22:16:23 25° SW
CZ-4B R/B 4.4 22:14:35 10° N 22:19:30 48° WNW 22:22:07 26° SW
Cosmos 676 Rocket 4.2 22:21:48 59° NE 22:21:48 59° NE 22:26:18 10° NNE
Cosmos 1758 Rocket 4.4 22:27:03 46° N 22:27:03 46° N 22:30:10 10° N
Cosmos 1461 4.5 22:23:14 10° NW 22:26:14 28° W 22:26:14 28° W
ARGOS 3.1 22:33:16 83° W 22:33:16 83° W 22:38:38 10° NNW
ATLAS 3B R/B 3.4 22:29:09 10° SW 22:36:42 58° WNW 22:44:12 10° NNE
Cosmos 2369 Rocket 2.3 22:38:22 10° NNW 22:43:27 72° N 22:43:27 72° N
USA 234 3.1 22:48:30 72° E 22:48:59 76° NE 22:55:33 10° NW
NOAA 11 4.5 22:49:51 61° WNW 22:49:51 61° WNW 22:54:48 10° NNW
Atlas Centaur 2 2.9 22:45:40 10° W 22:53:42 89° S 22:55:21 63° E
COSMOS 2406 4.1 23:09:27 42° NNE 23:09:27 42° NNE 23:13:10 10° NNE
Nadezhda 4 Rocket 4.3 23:08:39 60° NNE 23:08:39 60° NNE 23:13:48 10° N
USA 238 DEB 3.8 23:13:44 72° W 23:14:06 74° WNW 23:21:12 10° NNE
USA 238 3.8 23:13:55 74° W 23:14:12 75° WNW 23:21:18 10° NNE
Terra 3.4 23:22:46 32° NW 23:22:46 32° NW 23:25:25 10° NNW
CZ-4C R/B 4.5 23:26:52 13° NE 23:26:52 13° NE 23:27:33 10° NE
H-2A R/B 3.7 23:38:18 27° NW 23:38:18 27° NW 23:40:57 10° NNW
Cosmos 1943 Rocket 3.5 23:43:07 10° NNW 23:46:20 36° NW 23:46:20 36° NW
